This is the latest recevied weather packets stored in our database for station/object K7DC. If no packets are shown the sender has not sent any weather packets the latest 10 day(s).
| Time | Temp. | Humidity | Pressure | Rain* | Wind** | Luminosity | Snow |
|---|---|---|---|---|---|---|---|
| 1777172097 | 24.44° C | 19% | 1010.1 hPa | 0 mm | - | 0 W/m² | - |
| 1777171795 | 24.44° C | 19% | 1010 hPa | 0 mm | - | 0 W/m² | - |
| 1777171491 | 24.44° C | 20% | 1009.8 hPa | 0 mm | - | 0 W/m² | - |
| 1777171186 | 24.44° C | 20% | 1009.9 hPa | 0 mm | - | 0 W/m² | - |
| 1777170885 | 24.44° C | 20% | 1009.9 hPa | 0 mm | - | 0 W/m² | - |
| 1777170582 | 24.44° C | 20% | 1009.5 hPa | 0 mm | - | 0 W/m² | - |
| 1777170278 | 24.44° C | 20% | 1009.8 hPa | 0 mm | - | 0 W/m² | - |
| 1777169975 | 25° C | 19% | 1009.5 hPa | 0 mm | - | 0 W/m² | - |
| 1777169672 | 25° C | 19% | 1009.5 hPa | 0 mm | - | 0 W/m² | - |
| 1777169368 | 25° C | 19% | 1009.3 hPa | 0 mm | - | 1 W/m² | - |
| 1777169063 | 25° C | 19% | 1009.2 hPa | 0 mm | - | 1 W/m² | - |
| 1777168759 | 25° C | 19% | 1009.3 hPa | 0 mm | - | 3 W/m² | - |
| 1777168455 | 25° C | 20% | 1009.1 hPa | 0 mm | - | 5 W/m² | - |
| 1777168152 | 25° C | 20% | 1009.2 hPa | 0 mm | - | 8 W/m² | - |
| 1777167850 | 25.56° C | 20% | 1009.2 hPa | 0 mm | - | 11 W/m² | - |
| 1777167545 | 25.56° C | 19% | 1009.2 hPa | 0 mm | - | 17 W/m² | - |
| 1777167240 | 25.56° C | 19% | 1009.3 hPa | 0 mm | - | 20 W/m² | - |
| 1777166937 | 25.56° C | 19% | 1009.2 hPa | 0 mm | - | 28 W/m² | - |
| 1777166636 | 25.56° C | 19% | 1009.2 hPa | 0 mm | - | 35 W/m² | - |
| 1777166333 | 26.11° C | 19% | 1009.1 hPa | 0 mm | - | 44 W/m² | - |
| 1777166029 | 26.11° C | 18% | 1009.2 hPa | 0 mm | - | 45 W/m² | - |
| 1777165728 | 26.11° C | 18% | 1009.3 hPa | 0 mm | - | 54 W/m² | - |
| 1777165423 | 26.11° C | 18% | 1009.3 hPa | 0 mm | - | 71 W/m² | - |
| 1777165119 | 26.67° C | 18% | 1009.4 hPa | 0 mm | - | 80 W/m² | - |
| 1777164814 | 26.67° C | 18% | 1009.4 hPa | 0 mm | - | 101 W/m² | - |
* Rain latest hour (hover to see other rain measurements)
** Current wind speed in m/s (hover to see current wind gust speed)